Burlington, IA

7:42 AM CDT on May 24, 2018 (GMT -0500)
Burlington Regional

Weather History for KBRL - March, 2012

Change the Weather History Date:

Thursday, March 15, 2012

  Actual Average Record
Temperature  
Mean Temperature 70 °F 41 °F  
Max Temperature 81 °F 51 °F 81 °F (2012)
Min Temperature 59 °F 31 °F 9 °F (1951)
Degree Days  
Heating Degree Days 0 24  
Month to date heating degree days 286 405  
Since 1 July heating degree days 4237 4783  
Cooling Degree Days 5 0  
Month to date cooling degree days 6 0  
Year to date cooling degree days 6 0  
Growing Degree Days 20 (Base 50)    
Moisture  
Dew Point 59 °F    
Average Humidity 68    
Maximum Humidity 90    
Minimum Humidity 45    
Precipitation  
Precipitation 0.00 in 0.09 in 0.89 in (2001)
Month to date precipitation 0.84 1.29  
Year to date precipitation 2.51 4.15  
Sea Level Pressure  
Sea Level Pressure 29.97 in    
Wind  
Wind Speed 9 mph (SW)    
Max Wind Speed 17 mph    
Max Gust Speed 23 mph    
Visibility 10 miles    
Events      
T = Trace of Precipitation, MM = Missing Value Source: NWS Daily Summary

Daily Weather History Graph

Daily Weather History Graph

Search for Another Location

Airport or City:

Astronomy

Mar. 15, 2012 Rise Set
Actual Time 7:15 AM CDT 7:11 PM CDT
Civil Twilight 6:48 AM CDT 7:39 PM CDT
Nautical Twilight 6:16 AM CDT 8:11 PM CDT
Astronomical Twilight 5:43 AM CDT 8:43 PM CDT
Moon 2:45 AM CDT (3/15) 12:27 PM CDT (3/15)
Length of Visible Light 12h 51m
Length of Day
11h 56m
Last Quarter, 43% of the Moon is Illuminated
Mar 15
Last Quarter
Mar 22
New
Mar 30
First Quarter
Apr 6
Full
Apr 13
Last Quarter

Hourly Weather History & Observations

Time (CDT) Temp. Heat Index Dew Point Humidity Pressure Visibility Wind Dir Wind Speed Gust Speed Precip Events Conditions
12:53 AM 68.0 °F - 60.1 °F 76% 29.94 in 10.0 mi SW 11.5 mph - N/A   Partly Cloudy
1:53 AM 64.9 °F - 59.0 °F 81% 29.94 in 10.0 mi SW 9.2 mph - N/A   Partly Cloudy
2:53 AM 64.9 °F - 59.0 °F 81% 29.95 in 10.0 mi SW 8.1 mph - N/A   Scattered Clouds
3:53 AM 64.9 °F - 59.0 °F 81% 29.95 in 10.0 mi WSW 9.2 mph - N/A   Clear
4:53 AM 64.9 °F - 59.0 °F 81% 29.95 in 10.0 mi WSW 9.2 mph - N/A   Clear
5:53 AM 62.1 °F - 57.9 °F 86% 29.97 in 10.0 mi SSW 8.1 mph - N/A   Clear
6:53 AM 60.1 °F - 57.0 °F 90% 29.99 in 10.0 mi SSW 9.2 mph - N/A   Clear
7:53 AM 60.1 °F - 57.0 °F 90% 30.01 in 8.0 mi SSW 8.1 mph - N/A   Clear
8:53 AM 64.0 °F - 59.0 °F 84% 30.02 in 10.0 mi SW 8.1 mph - N/A   Clear
9:53 AM 69.1 °F - 60.1 °F 73% 30.02 in 10.0 mi WSW 9.2 mph - N/A   Partly Cloudy
10:53 AM 72.0 °F - 62.1 °F 71% 30.01 in - WSW 10.4 mph - N/A   Clear
11:53 AM 73.9 °F - 62.1 °F 66% 30.00 in 10.0 mi WSW 9.2 mph - N/A   Unknown
12:53 PM 77.0 °F - 62.1 °F 60% 29.99 in 10.0 mi WSW 10.4 mph - N/A   Partly Cloudy
1:53 PM 79.0 °F - 63.0 °F 58% 29.98 in 10.0 mi SSW 13.8 mph - N/A   Overcast
2:53 PM 79.0 °F - 60.1 °F 52% 29.96 in 10.0 mi SW 13.8 mph 17.3 mph N/A   Mostly Cloudy
3:53 PM 81.0 °F 81.6 °F 60.1 °F 49% 29.95 in 10.0 mi WSW 12.7 mph - N/A   Scattered Clouds
4:53 PM 80.1 °F 80.4 °F 57.0 °F 45% 29.94 in 10.0 mi SW 9.2 mph - N/A   Partly Cloudy
5:53 PM 78.1 °F - 57.0 °F 48% 29.93 in 10.0 mi SW 10.4 mph - N/A   Partly Cloudy
6:53 PM 75.0 °F - 57.9 °F 55% 29.94 in 10.0 mi SSW 4.6 mph - N/A   Partly Cloudy
7:53 PM 70.0 °F - 59.0 °F 68% 29.97 in 10.0 mi South 4.6 mph - N/A   Partly Cloudy
8:53 PM 70.0 °F - 60.1 °F 71% 29.98 in 10.0 mi SSW 5.8 mph - N/A   Mostly Cloudy
9:53 PM 68.0 °F - 59.0 °F 73% 29.98 in 10.0 mi SSW 9.2 mph - N/A   Clear
10:53 PM 66.0 °F - 57.9 °F 75% 29.99 in 10.0 mi SSW 10.4 mph - N/A   Clear
11:53 PM 64.9 °F - 55.0 °F 70% 30.00 in 10.0 mi South 9.2 mph - N/A   Clear